Back to catalog

COSMOS 825

AliveMilitaryLEO
NORAD 8889·PAYLOAD·🇷🇺 Russia

Launched Jun 15, 1976 from Plesetsk Cosmodrome

Loading…

Next Passes (next 24 hours)

TLE

FreshSource: Space-Track

Epoch: Sep 14, 2026, 00:17 UTC

1 08889U 76054A   26257.01224263 -.00000027  00000-0 -62249-4 0  9995
2 08889  73.9971 262.9856 0058677   7.1043  23.4531 12.55744312303331

Track COSMOS 825 in real time with AllMySat

Download on the App Store